Regional Weather Roundup
Issued by NWS Mobile, AL

Home | Current Version | Previous Version | Text Only | Print | Product List | Glossary On
Versions: 1 2 3 4 5 6 7 8 9 10 11 12 13 14 15 16 17 18 19 20 21 22 23 24 25 26 27 28 29 30 31 32 33 34 35 36 37 38 39 40 41 42 43 44 45 46 47 48 49 50
139
ASUS44 KMOB 250212
RWRMOB
REGIONAL WEATHER ROUNDUP
NATIONAL WEATHER SERVICE MOBILE AL
900 PM CDT SAT SEP 24 2016

NOTE: "FAIR" INDICATES FEW OR NO CLOUDS BELOW 12,000 FEET WITH NO
      SIGNIFICANT WEATHER AND/OR OBSTRUCTIONS TO VISIBILITY.

  * THESE STATIONS ARE PART OF THE UNIVERSITY OF SOUTH ALABAMA
    MESONET AND ARE NOT UNDER NWS OR FAA QUALITY CONTROL.

ALZ061>064-250300-
COASTAL ALABAMA

CITY           SKY/WX    TMP DP  RH WIND       PRES   REMARKS
MOBILE REG APT PTCLDY    77  71  82 W3        30.02R
BROOKLEY FIELD CLEAR     81  73  76 W3        30.01R
USA CAMPUS*    NOT AVBL
DOG RIVER*     NOT AVBL


CITY           SKY/WX    TMP DP  RH WIND       PRES   REMARKS
MOUNT VERNON*  NOT AVBL
SARALAND*      NOT AVBL
BAY MINETTE*   NOT AVBL
LOXLEY*        NOT AVBL
ROBERTSDALE*   NOT AVBL
FAIRHOPE*      NOT AVBL
ELBERTA*       NOT AVBL
FOLEY*         NOT AVBL
GRAND BAY*     NOT AVBL
DAUPHIN ISLND* NOT AVBL
BON SCOUR NWR* NOT AVBL
GULF SHORES    PTCLDY    79  77  92 CALM      30.00R

$$

ALZ051>060-250300-
INTERIOR SOUTHWEST AND SOUTH CENTRAL ALABAMA

CITY           SKY/WX    TMP DP  RH WIND       PRES   REMARKS
GREENVILLE     NOT AVBL
EVERGREEN      PTCLDY    73  71  93 E3        30.02
CASTLEBERRY*   NOT AVBL
ATMORE*        NOT AVBL
DIXIE*         NOT AVBL
ANDALUSIA/OPP  PTCLDY    76  70  82 E5        30.01R
ANDALUSIA*     NOT AVBL
FLORALA APT    NOT AVBL
FLORALA*       NOT AVBL

$$

FLZ001>006-250300-
WESTERN FLORIDA PANHANDLE

CITY           SKY/WX    TMP DP  RH WIND       PRES   REMARKS
PENSACOLA      PTCLDY    82  70  66 CALM      30.00R
NAS PENSACOLA  CLEAR     77  73  87 CALM      29.99R
MILTON         NOT AVBL
WHTNG S FIELD  CLEAR     76  73  91 CALM      30.01R


CITY           SKY/WX    TMP DP  RH WIND       PRES   REMARKS
WALNUT HILL*   NOT AVBL
JAY*           NOT AVBL
DUKE FIELD     PTCLDY    74  70  86 N5        29.99R
CRESTVIEW      CLEAR     72  68  87 CALM      30.01R
VALPARAISO     PTCLDY    77  69  75 CALM      29.98S
DESTIN         PTCLDY    82  72  71 CALM      29.99R

$$

MSZ076-079-250300-
INTERIOR SOUTHEAST MISSISSIPPI

CITY           SKY/WX    TMP DP  RH WIND       PRES   REMARKS
LEAKESVILLE*   NOT AVBL
AGRICOLA*      NOT AVBL

$$

MARINE OBSERVATIONS

STATION/POSITION TIME  TEMP    WIND        PRES    WAVE
                       AIR SEA DIR/SP/G            HT/PER
                 (UTC) (F)     (DEG/KT/KT) (MB)    (FT/S)
PASCAGOULA       0100   86     240/  5/  6 1015.4R
PETIT BOIS ISLND 0100   85     240/  6/  7 1016.2R
GRAND BAY        0045   84     290/  2     1016.0S
KATRINA CUT      0100   86     260/  8     1016.3R
CEDAR POINT      0100   86     260/  8     1015.6R
E DAUPHIN ISLAND 0200   84     260/  5/  7 1015.5R
MIDDLE BAY LIGHT 0100   86     250/ 10     1015.6R
USCG MOBILE BAY  0100   83 86  270/  5/  8 1016.0R
STATE DOCKS      0100   86                 1015.3R
MEAHER PARK      0100   85     250/  8     1015.6R
WEEKS BAY        0000   82                   N/A
FORT MORGAN      0100   86     280/  8/  9 1015.0R
12 S ORANGE BCH  0150   85 86  240/  6/  8 1015.7S   1
PENSACOLA BAY    0100   85 87  280/  3/  5 1015.7R
64 S DAUPHIN ISL 0100   83 86  240/  4/  6 1015.5R
67 S FORT MORGAN 0130   83     260/  2     1015.9R

$$

SELECTED LOCATIONS ACROSS THE REGION

CITY           SKY/WX    TMP DP  RH WIND       PRES   REMARKS
NEW ORLEANS    CLEAR     80  74  81 S5        30.00S
GULFPORT       CLEAR     79  74  84 CALM      29.99R
PASCAGOULA AP  CLEAR     74  74 100 CALM      30.00R
PASCAGOULA*    NOT AVBL
HATTIESBURG    CLEAR     82  71  69 SW5       30.01R
LAUREL         CLEAR     79  70  73 CALM      30.01S
MERIDIAN       CLEAR     75  68  78 CALM      30.00R
JACKSON        PTCLDY    78  69  73 CALM      30.00R
MONTGOMERY     CLEAR     77  66  68 CALM      30.01R
TROY           CLEAR     72  68  87 CALM      30.03R
KINSTON*       NOT AVBL
GENEVA*        NOT AVBL
ASHFORD*       NOT AVBL
DOTHAN         CLEAR     82  70  66 N3        30.05R
PANAMA CITY    PTCLDY    79  73  83 E3        29.99R

$$





USA.gov is the U.S. government's official web portal to all federal, state and local government web resources and services.